User: anonymous   Login
Location: Unspecified
(0.0000°N, 0.0000°E)
Time: 03:24:27
(UTC+00:00)
Language:

STARLINK-5593 - Orbit

View from above orbital plane
View from above orbital plane
View from above satellite
View from above satellite

Ground track
Ground track

The orbit is defined by the following mean orbital elements,

1 55763U          26145.46021591 +.00000000 +00000-0 -30989-4 0 00009
2 55763  70.0004  50.7327 0002793 267.8049  92.2790 14.98327415    03
Epoch (UTC): 25 May 2026 11:02:42
Eccentricity: 0.0002793
inclination: 70.0004°
perigee height: 570 km
apogee height: 574 km
right ascension of ascending node: 50.7327°
argument of perigee: 267.8049°
revolutions per day: 14.98327415
mean anomaly at epoch: 92.2790°

The dashed part of the orbit path shows where the satellite is in the earth's shadow,  

DLR